contact:dominique.lefevre@mio.osupytheas.fr, maurice.libes@osupytheas.fr, didier.mallarino@osupytheas.fr
Project:EMSO http://www.emso-fr.org/EMSO-France
Depth: 2436.0 m
Title:EMSO Ligure Ouest : Data MII capteur MICROCAT
DateTime_Computer,Latitude,Longitude,Temperature,Conductivity,Pressure,DateTime_Instrument
DateTime_Computer,Latitude,Longitude,degC,S m-1,dbar,DateTime_Instrument
2023-09-20T00:02:58Z,42.805,6.029,13.3046,4.60146,2470.787,2023-9-20T02:05:20Z
2023-09-20T00:06:01Z,42.805,6.029,13.3036,4.60152,2470.787,2023-9-20T02:08:23Z
2023-09-20T00:09:04Z,42.805,6.029,13.3041,4.60154,2470.763,2023-9-20T02:11:27Z
2023-09-20T00:12:07Z,42.805,6.029,13.3037,4.60135,2470.73,2023-9-20T02:14:30Z
2023-09-20T00:15:10Z,42.805,6.029,13.3038,4.60135,2470.763,2023-9-20T02:17:33Z
2023-09-20T00:18:13Z,42.805,6.029,13.3040,4.60148,2470.8,2023-9-20T02:20:36Z
2023-09-20T00:21:17Z,42.805,6.029,13.3039,4.60171,2470.763,2023-9-20T02:23:39Z
2023-09-20T00:24:20Z,42.805,6.029,13.3041,4.60140,2470.763,2023-9-20T02:26:42Z
2023-09-20T00:27:23Z,42.805,6.029,13.3046,4.60160,2470.81,2023-9-20T02:29:45Z
2023-09-20T00:30:26Z,42.805,6.029,13.3042,4.60150,2470.754,2023-9-20T02:32:48Z
2023-09-20T00:33:29Z,42.805,6.029,13.3046,4.60165,2470.763,2023-9-20T02:35:51Z
2023-09-20T00:36:32Z,42.805,6.029,13.3039,4.60134,2470.763,2023-9-20T02:38:54Z
2023-09-20T00:39:35Z,42.805,6.029,13.3034,4.60129,2470.777,2023-9-20T02:41:57Z
2023-09-20T00:42:38Z,42.805,6.029,13.3036,4.60129,2470.763,2023-9-20T02:45:00Z
2023-09-20T00:45:41Z,42.805,6.029,13.3036,4.60114,2470.754,2023-9-20T02:48:04Z
2023-09-20T00:48:44Z,42.805,6.029,13.3033,4.60130,2470.777,2023-9-20T02:51:07Z
2023-09-20T00:51:47Z,42.805,6.029,13.3042,4.60136,2470.74,2023-9-20T02:54:10Z
2023-09-20T00:54:50Z,42.805,6.029,13.3043,4.60125,2470.73,2023-9-20T02:57:13Z
2023-09-20T00:57:54Z,42.805,6.029,13.3037,4.60132,2470.703,2023-9-20T03:00:16Z
2023-09-20T01:00:57Z,42.805,6.029,13.3036,4.60127,2470.754,2023-9-20T03:03:19Z
2023-09-20T01:04:00Z,42.805,6.029,13.3043,4.60137,2470.754,2023-9-20T03:06:22Z
2023-09-20T01:07:03Z,42.805,6.029,13.3041,4.60125,2470.717,2023-9-20T03:09:25Z
2023-09-20T01:10:06Z,42.805,6.029,13.3043,4.60148,2470.74,2023-9-20T03:12:28Z
2023-09-20T01:13:09Z,42.805,6.029,13.3043,4.60156,2470.74,2023-9-20T03:15:31Z
2023-09-20T01:16:12Z,42.805,6.029,13.3049,4.60155,2470.73,2023-9-20T03:18:34Z
2023-09-20T01:19:15Z,42.805,6.029,13.3034,4.60134,2470.73,2023-9-20T03:21:37Z
2023-09-20T01:22:18Z,42.805,6.029,13.3033,4.60122,2470.67,2023-9-20T03:24:41Z
2023-09-20T01:25:21Z,42.805,6.029,13.3042,4.60160,2470.693,2023-9-20T03:27:44Z
2023-09-20T01:28:24Z,42.805,6.029,13.3037,4.60129,2470.717,2023-9-20T03:30:47Z
2023-09-20T01:31:27Z,42.805,6.029,13.3040,4.60135,2470.693,2023-9-20T03:33:50Z
2023-09-20T01:34:31Z,42.805,6.029,13.3048,4.60152,2470.656,2023-9-20T03:36:53Z
2023-09-20T01:37:34Z,42.805,6.029,13.3065,4.60161,2470.73,2023-9-20T03:39:56Z
2023-09-20T01:40:37Z,42.805,6.029,13.3037,4.60117,2470.768,2023-9-20T03:42:59Z
2023-09-20T01:43:40Z,42.805,6.029,13.3041,4.60153,2470.73,2023-9-20T03:46:02Z
2023-09-20T01:46:43Z,42.805,6.029,13.3046,4.60142,2470.693,2023-9-20T03:49:05Z
2023-09-20T01:49:46Z,42.805,6.029,13.3034,4.60119,2470.717,2023-9-20T03:52:08Z
2023-09-20T01:52:49Z,42.805,6.029,13.3042,4.60142,2470.67,2023-9-20T03:55:11Z
2023-09-20T01:55:52Z,42.805,6.029,13.3041,4.60119,2470.693,2023-9-20T03:58:14Z
2023-09-20T01:58:55Z,42.805,6.029,13.3046,4.60164,2470.717,2023-9-20T04:01:18Z
2023-09-20T02:01:58Z,42.805,6.029,13.3034,4.60136,2470.67,2023-9-20T04:04:21Z
2023-09-20T02:05:01Z,42.805,6.029,13.3031,4.60110,2470.717,2023-9-20T04:07:24Z
2023-09-20T02:08:04Z,42.805,6.029,13.3041,4.60111,2470.717,2023-9-20T04:10:27Z
2023-09-20T02:11:08Z,42.805,6.029,13.3041,4.60107,2470.693,2023-9-20T04:13:30Z
2023-09-20T02:14:11Z,42.805,6.029,13.3037,4.60124,2470.693,2023-9-20T04:16:33Z
2023-09-20T02:17:14Z,42.805,6.029,13.3034,4.60114,2470.717,2023-9-20T04:19:36Z
2023-09-20T02:20:17Z,42.805,6.029,13.3036,4.60138,2470.693,2023-9-20T04:22:39Z
2023-09-20T02:23:20Z,42.805,6.029,13.3039,4.60132,2470.693,2023-9-20T04:25:42Z
2023-09-20T02:26:23Z,42.805,6.029,13.3040,4.60117,2470.693,2023-9-20T04:28:45Z
2023-09-20T02:29:26Z,42.805,6.029,13.3034,4.60122,2470.693,2023-9-20T04:31:48Z
2023-09-20T02:32:29Z,42.805,6.029,13.3035,4.60104,2470.684,2023-9-20T04:34:51Z
2023-09-20T02:35:32Z,42.805,6.029,13.3031,4.60114,2470.684,2023-9-20T04:37:55Z
2023-09-20T02:38:35Z,42.805,6.029,13.3029,4.60131,2470.693,2023-9-20T04:40:58Z
2023-09-20T02:41:38Z,42.805,6.029,13.3040,4.60133,2470.646,2023-9-20T04:44:01Z
2023-09-20T02:44:41Z,42.805,6.029,13.3031,4.60117,2470.707,2023-9-20T04:47:04Z
2023-09-20T02:47:45Z,42.805,6.029,13.3029,4.60117,2470.684,2023-9-20T04:50:07Z
2023-09-20T02:50:48Z,42.805,6.029,13.3036,4.60112,2470.67,2023-9-20T04:53:10Z
2023-09-20T02:53:51Z,42.805,6.029,13.3032,4.60119,2470.684,2023-9-20T04:56:13Z
2023-09-20T02:56:54Z,42.805,6.029,13.3033,4.60117,2470.684,2023-9-20T04:59:16Z
2023-09-20T02:59:57Z,42.805,6.029,13.3034,4.60125,2470.684,2023-9-20T05:02:19Z
2023-09-20T03:03:00Z,42.805,6.029,13.3045,4.60128,2470.67,2023-9-20T05:05:22Z
2023-09-20T03:06:03Z,42.805,6.029,13.3029,4.60116,2470.67,2023-9-20T05:08:25Z
2023-09-20T03:09:06Z,42.805,6.029,13.3034,4.60101,2470.693,2023-9-20T05:11:28Z
2023-09-20T03:12:09Z,42.805,6.029,13.3039,4.60127,2470.684,2023-9-20T05:14:32Z
2023-09-20T03:15:12Z,42.805,6.029,13.3046,4.60127,2470.67,2023-9-20T05:17:35Z
2023-09-20T03:18:15Z,42.805,6.029,13.3039,4.60122,2470.707,2023-9-20T05:20:38Z
2023-09-20T03:21:18Z,42.805,6.029,13.3034,4.60147,2470.646,2023-9-20T05:23:41Z
2023-09-20T03:24:22Z,42.805,6.029,13.3051,4.60144,2470.67,2023-9-20T05:26:44Z
2023-09-20T03:27:25Z,42.805,6.029,13.3033,4.60137,2470.693,2023-9-20T05:29:47Z
2023-09-20T03:30:28Z,42.805,6.029,13.3052,4.60127,2470.693,2023-9-20T05:32:50Z
2023-09-20T03:33:31Z,42.805,6.029,13.3039,4.60125,2470.693,2023-9-20T05:35:53Z
2023-09-20T03:36:34Z,42.805,6.029,13.3029,4.60116,2470.693,2023-9-20T05:38:56Z
2023-09-20T03:39:37Z,42.805,6.029,13.3037,4.60128,2470.67,2023-9-20T05:41:59Z
2023-09-20T03:42:40Z,42.805,6.029,13.3035,4.60125,2470.73,2023-9-20T05:45:02Z
2023-09-20T03:45:43Z,42.805,6.029,13.3051,4.60144,2470.646,2023-9-20T05:48:05Z
2023-09-20T03:48:46Z,42.805,6.029,13.3047,4.60135,2470.67,2023-9-20T05:51:09Z
2023-09-20T03:51:49Z,42.805,6.029,13.3037,4.60135,2470.646,2023-9-20T05:54:12Z
2023-09-20T03:54:52Z,42.805,6.029,13.3043,4.60163,2470.67,2023-9-20T05:57:15Z
2023-09-20T03:57:55Z,42.805,6.029,13.3048,4.60139,2470.684,2023-9-20T06:00:18Z
2023-09-20T04:00:59Z,42.805,6.029,13.3044,4.60140,2470.67,2023-9-20T06:03:21Z
2023-09-20T04:04:02Z,42.805,6.029,13.3064,4.60164,2470.67,2023-9-20T06:06:24Z
2023-09-20T04:07:05Z,42.805,6.029,13.3058,4.60158,2470.67,2023-9-20T06:09:27Z
2023-09-20T04:10:08Z,42.805,6.029,13.3058,4.60157,2470.646,2023-9-20T06:12:30Z
2023-09-20T04:13:11Z,42.805,6.029,13.3051,4.60135,2470.67,2023-9-20T06:15:33Z
2023-09-20T04:16:14Z,42.805,6.029,13.3044,4.60122,2470.67,2023-9-20T06:18:36Z
2023-09-20T04:19:17Z,42.805,6.029,13.3044,4.60150,2470.693,2023-9-20T06:21:39Z
2023-09-20T04:22:20Z,42.805,6.029,13.3055,4.60152,2470.646,2023-9-20T06:24:42Z
2023-09-20T04:25:23Z,42.805,6.029,13.3068,4.60160,2470.67,2023-9-20T06:27:46Z
2023-09-20T04:28:26Z,42.805,6.029,13.3076,4.60137,2470.67,2023-9-20T06:30:49Z
2023-09-20T04:31:30Z,42.805,6.029,13.3049,4.60175,2470.67,2023-9-20T06:33:52Z
2023-09-20T04:34:33Z,42.805,6.029,13.3066,4.60151,2470.684,2023-9-20T06:36:55Z
2023-09-20T04:37:36Z,42.805,6.029,13.3041,4.60158,2470.661,2023-9-20T06:39:58Z
2023-09-20T04:40:39Z,42.805,6.029,13.3056,4.60133,2470.707,2023-9-20T06:43:01Z
2023-09-20T04:43:42Z,42.805,6.029,13.3078,4.60155,2470.67,2023-9-20T06:46:04Z
2023-09-20T04:46:45Z,42.805,6.029,13.3059,4.60166,2470.67,2023-9-20T06:49:07Z
2023-09-20T04:49:48Z,42.805,6.029,13.3050,4.60144,2470.684,2023-9-20T06:52:10Z
2023-09-20T04:52:51Z,42.805,6.029,13.3052,4.60139,2470.646,2023-9-20T06:55:13Z
2023-09-20T04:55:54Z,42.805,6.029,13.3048,4.60165,2470.661,2023-9-20T06:58:17Z
2023-09-20T04:58:57Z,42.805,6.029,13.3054,4.60165,2470.646,2023-9-20T07:01:20Z
2023-09-20T05:02:00Z,42.805,6.029,13.3067,4.60176,2470.693,2023-9-20T07:04:23Z
2023-09-20T05:05:03Z,42.805,6.029,13.3063,4.60171,2470.707,2023-9-20T07:07:26Z
2023-09-20T05:08:07Z,42.805,6.029,13.3067,4.60149,2470.693,2023-9-20T07:10:29Z
2023-09-20T05:11:10Z,42.805,6.029,13.3081,4.60165,2470.67,2023-9-20T07:13:32Z
2023-09-20T05:14:13Z,42.805,6.029,13.3074,4.60141,2470.684,2023-9-20T07:16:35Z
2023-09-20T05:17:16Z,42.805,6.029,13.3069,4.60160,2470.67,2023-9-20T07:19:38Z
2023-09-20T05:20:19Z,42.805,6.029,13.3054,4.60167,2470.684,2023-9-20T07:22:41Z
2023-09-20T05:23:22Z,42.805,6.029,13.3075,4.60180,2470.67,2023-9-20T07:25:44Z
2023-09-20T05:26:25Z,42.805,6.029,13.3063,4.60127,2470.693,2023-9-20T07:28:47Z
2023-09-20T05:29:28Z,42.805,6.029,13.3050,4.60170,2470.684,2023-9-20T07:31:51Z
2023-09-20T05:32:31Z,42.805,6.029,13.3076,4.60163,2470.693,2023-9-20T07:34:54Z
2023-09-20T05:35:34Z,42.805,6.029,13.3056,4.60140,2470.707,2023-9-20T07:37:57Z
2023-09-20T05:38:37Z,42.805,6.029,13.3076,4.60166,2470.67,2023-9-20T07:41:00Z
2023-09-20T05:41:40Z,42.805,6.029,13.3066,4.60177,2470.707,2023-9-20T07:44:03Z
2023-09-20T05:44:44Z,42.805,6.029,13.3067,4.60167,2470.67,2023-9-20T07:47:06Z
2023-09-20T05:47:47Z,42.805,6.029,13.3067,4.60182,2470.73,2023-9-20T07:50:09Z
2023-09-20T05:50:50Z,42.805,6.029,13.3080,4.60148,2470.684,2023-9-20T07:53:12Z
2023-09-20T05:53:53Z,42.805,6.029,13.3049,4.60147,2470.693,2023-9-20T07:56:15Z
2023-09-20T05:56:56Z,42.805,6.029,13.3062,4.60147,2470.73,2023-9-20T07:59:18Z
2023-09-20T05:59:59Z,42.805,6.029,13.3058,4.60175,2470.693,2023-9-20T08:02:21Z
2023-09-20T06:03:02Z,42.805,6.029,13.3061,4.60188,2470.707,2023-9-20T08:05:24Z
2023-09-20T06:06:05Z,42.805,6.029,13.3079,4.60174,2470.67,2023-9-20T08:08:28Z
2023-09-20T06:09:08Z,42.805,6.029,13.3073,4.60173,2470.693,2023-9-20T08:11:31Z
2023-09-20T06:12:11Z,42.805,6.029,13.3049,4.60182,2470.717,2023-9-20T08:14:34Z
2023-09-20T06:15:14Z,42.805,6.029,13.3057,4.60182,2470.73,2023-9-20T08:17:37Z
2023-09-20T06:18:17Z,42.805,6.029,13.3073,4.60180,2470.707,2023-9-20T08:20:40Z
2023-09-20T06:21:21Z,42.805,6.029,13.3069,4.60168,2470.693,2023-9-20T08:23:43Z
2023-09-20T06:24:24Z,42.805,6.029,13.3072,4.60155,2470.707,2023-9-20T08:26:46Z
2023-09-20T06:27:27Z,42.805,6.029,13.3084,4.60165,2470.754,2023-9-20T08:29:49Z
2023-09-20T06:30:30Z,42.805,6.029,13.3073,4.60201,2470.707,2023-9-20T08:32:52Z
2023-09-20T06:33:33Z,42.805,6.029,13.3092,4.60160,2470.707,2023-9-20T08:35:55Z
2023-09-20T06:36:36Z,42.805,6.029,13.3070,4.60210,2470.74,2023-9-20T08:38:58Z
2023-09-20T06:39:39Z,42.805,6.029,13.3061,4.60161,2470.73,2023-9-20T08:42:01Z
2023-09-20T06:42:42Z,42.805,6.029,13.3076,4.60175,2470.777,2023-9-20T08:45:05Z
2023-09-20T06:45:45Z,42.805,6.029,13.3088,4.60161,2470.73,2023-9-20T08:48:08Z
2023-09-20T06:48:48Z,42.805,6.029,13.3075,4.60214,2470.74,2023-9-20T08:51:11Z
2023-09-20T06:51:51Z,42.805,6.029,13.3078,4.60157,2470.754,2023-9-20T08:54:14Z
2023-09-20T06:54:54Z,42.805,6.029,13.3047,4.60202,2470.717,2023-9-20T08:57:17Z
2023-09-20T06:57:58Z,42.805,6.029,13.3070,4.60111,2470.74,2023-9-20T09:00:20Z
2023-09-20T07:01:01Z,42.805,6.029,13.3055,4.60161,2470.777,2023-9-20T09:03:23Z
2023-09-20T07:04:04Z,42.805,6.029,13.3059,4.60161,2470.73,2023-9-20T09:06:26Z
2023-09-20T07:07:07Z,42.805,6.029,13.3071,4.60198,2470.73,2023-9-20T09:09:29Z
2023-09-20T07:10:10Z,42.805,6.029,13.3059,4.60135,2470.74,2023-9-20T09:12:32Z
2023-09-20T07:13:13Z,42.805,6.029,13.3063,4.60183,2470.74,2023-9-20T09:15:35Z
2023-09-20T07:16:16Z,42.805,6.029,13.3050,4.60132,2470.74,2023-9-20T09:18:38Z
2023-09-20T07:19:19Z,42.805,6.029,13.3041,4.60125,2470.74,2023-9-20T09:21:42Z
2023-09-20T07:22:22Z,42.805,6.029,13.3065,4.60133,2470.787,2023-9-20T09:24:45Z
2023-09-20T07:25:25Z,42.805,6.029,13.3054,4.60191,2470.74,2023-9-20T09:27:48Z
2023-09-20T07:28:28Z,42.805,6.029,13.3080,4.60184,2470.8,2023-9-20T09:30:51Z
2023-09-20T07:31:31Z,42.805,6.029,13.3086,4.60150,2470.787,2023-9-20T09:33:54Z
2023-09-20T07:34:35Z,42.805,6.029,13.3093,4.60189,2470.74,2023-9-20T09:36:57Z
2023-09-20T07:37:38Z,42.805,6.029,13.3073,4.60223,2470.8,2023-9-20T09:40:00Z
2023-09-20T07:40:41Z,42.805,6.029,13.3086,4.60175,2470.74,2023-9-20T09:43:03Z
2023-09-20T07:43:44Z,42.805,6.029,13.3075,4.60126,2470.8,2023-9-20T09:46:06Z
2023-09-20T07:46:47Z,42.805,6.029,13.3067,4.60144,2470.8,2023-9-20T09:49:09Z
2023-09-20T07:49:50Z,42.805,6.029,13.3059,4.60150,2470.777,2023-9-20T09:52:12Z
2023-09-20T07:52:53Z,42.805,6.029,13.3067,4.60132,2470.787,2023-9-20T09:55:15Z
2023-09-20T07:55:56Z,42.805,6.029,13.3085,4.60169,2470.763,2023-9-20T09:58:19Z
2023-09-20T07:58:59Z,42.805,6.029,13.3065,4.60140,2470.787,2023-9-20T10:01:22Z
2023-09-20T08:02:02Z,42.805,6.029,13.3076,4.60233,2470.8,2023-9-20T10:04:25Z
2023-09-20T08:05:05Z,42.805,6.029,13.3074,4.60217,2470.8,2023-9-20T10:07:28Z
2023-09-20T08:08:08Z,42.805,6.029,13.3067,4.60180,2470.763,2023-9-20T10:10:31Z
2023-09-20T08:11:12Z,42.805,6.029,13.3084,4.60165,2470.824,2023-9-20T10:13:34Z
2023-09-20T08:14:15Z,42.805,6.029,13.3058,4.60167,2470.824,2023-9-20T10:16:37Z
2023-09-20T08:17:18Z,42.805,6.029,13.3051,4.60178,2470.8,2023-9-20T10:19:40Z
2023-09-20T08:20:21Z,42.805,6.029,13.3054,4.60239,2470.8,2023-9-20T10:22:43Z
2023-09-20T08:23:24Z,42.805,6.029,13.3077,4.60197,2470.777,2023-9-20T10:25:46Z
2023-09-20T08:26:27Z,42.805,6.029,13.3109,4.60146,2470.8,2023-9-20T10:28:49Z
2023-09-20T08:29:30Z,42.805,6.029,13.3077,4.60132,2470.824,2023-9-20T10:31:52Z
2023-09-20T08:32:33Z,42.805,6.029,13.3075,4.60134,2470.81,2023-9-20T10:34:56Z
2023-09-20T08:35:36Z,42.805,6.029,13.3085,4.60213,2470.81,2023-9-20T10:37:59Z
2023-09-20T08:38:39Z,42.805,6.029,13.3084,4.60166,2470.8,2023-9-20T10:41:02Z
2023-09-20T08:41:42Z,42.805,6.029,13.3070,4.60167,2470.81,2023-9-20T10:44:05Z
2023-09-20T08:44:46Z,42.805,6.029,13.3073,4.60197,2470.787,2023-9-20T10:47:08Z
2023-09-20T08:47:49Z,42.805,6.029,13.3075,4.60178,2470.824,2023-9-20T10:50:11Z
2023-09-20T08:50:52Z,42.805,6.029,13.3077,4.60160,2470.847,2023-9-20T10:53:14Z
2023-09-20T08:53:55Z,42.805,6.029,13.3091,4.60127,2470.824,2023-9-20T10:56:17Z
2023-09-20T08:56:58Z,42.805,6.029,13.3067,4.60160,2470.81,2023-9-20T10:59:20Z
2023-09-20T09:00:01Z,42.805,6.029,13.3084,4.60172,2470.833,2023-9-20T11:02:23Z
2023-09-20T09:03:04Z,42.805,6.029,13.3067,4.60176,2470.81,2023-9-20T11:05:26Z
2023-09-20T09:06:07Z,42.805,6.029,13.3069,4.60169,2470.81,2023-9-20T11:08:30Z
2023-09-20T09:09:10Z,42.805,6.029,13.3078,4.60144,2470.81,2023-9-20T11:11:33Z
2023-09-20T09:12:13Z,42.805,6.029,13.3073,4.60168,2470.857,2023-9-20T11:14:36Z
2023-09-20T09:15:16Z,42.805,6.029,13.3096,4.60131,2470.833,2023-9-20T11:17:39Z
2023-09-20T09:18:20Z,42.805,6.029,13.3041,4.60169,2470.833,2023-9-20T11:20:42Z
2023-09-20T09:21:23Z,42.805,6.029,13.3067,4.60170,2470.81,2023-9-20T11:23:45Z
2023-09-20T09:24:26Z,42.805,6.029,13.3068,4.60194,2470.81,2023-9-20T11:26:48Z
2023-09-20T09:27:29Z,42.805,6.029,13.3087,4.60160,2470.833,2023-9-20T11:29:51Z
2023-09-20T09:30:32Z,42.805,6.029,13.3076,4.60155,2470.857,2023-9-20T11:32:54Z
2023-09-20T09:33:35Z,42.805,6.029,13.3098,4.60143,2470.857,2023-9-20T11:35:57Z
2023-09-20T09:36:38Z,42.805,6.029,13.3090,4.60129,2470.833,2023-9-20T11:39:00Z
2023-09-20T09:39:41Z,42.805,6.029,13.3056,4.60173,2470.847,2023-9-20T11:42:04Z
2023-09-20T09:42:44Z,42.805,6.029,13.3043,4.60179,2470.833,2023-9-20T11:45:07Z
2023-09-20T09:45:47Z,42.805,6.029,13.3057,4.60161,2470.866,2023-9-20T11:48:10Z
2023-09-20T09:48:50Z,42.805,6.029,13.3088,4.60168,2470.847,2023-9-20T11:51:13Z
2023-09-20T09:51:53Z,42.805,6.029,13.3085,4.60161,2470.833,2023-9-20T11:54:16Z
2023-09-20T09:54:57Z,42.805,6.029,13.3084,4.60135,2470.857,2023-9-20T11:57:19Z
2023-09-20T09:58:00Z,42.805,6.029,13.3085,4.60152,2470.857,2023-9-20T12:00:22Z
2023-09-20T10:01:03Z,42.805,6.029,13.3085,4.60164,2470.81,2023-9-20T12:03:25Z
2023-09-20T10:04:06Z,42.805,6.029,13.3084,4.60195,2470.871,2023-9-20T12:06:28Z
2023-09-20T10:07:09Z,42.805,6.029,13.3056,4.60160,2470.833,2023-9-20T12:09:31Z
2023-09-20T10:10:12Z,42.805,6.029,13.3058,4.60129,2470.847,2023-9-20T12:12:34Z
2023-09-20T10:13:15Z,42.805,6.029,13.3074,4.60136,2470.833,2023-9-20T12:15:38Z
2023-09-20T10:16:18Z,42.805,6.029,13.3053,4.60178,2470.857,2023-9-20T12:18:41Z
2023-09-20T10:19:21Z,42.805,6.029,13.3063,4.60166,2470.81,2023-9-20T12:21:44Z
2023-09-20T10:22:24Z,42.805,6.029,13.3048,4.60154,2470.857,2023-9-20T12:24:47Z
2023-09-20T10:25:27Z,42.805,6.029,13.3058,4.60162,2470.833,2023-9-20T12:27:50Z
2023-09-20T10:28:31Z,42.805,6.029,13.3040,4.60164,2470.871,2023-9-20T12:30:53Z
2023-09-20T10:31:34Z,42.805,6.029,13.3052,4.60174,2470.88,2023-9-20T12:33:56Z
2023-09-20T10:34:37Z,42.805,6.029,13.3069,4.60146,2470.857,2023-9-20T12:36:59Z
2023-09-20T10:37:40Z,42.805,6.029,13.3054,4.60146,2470.871,2023-9-20T12:40:02Z
2023-09-20T10:40:43Z,42.805,6.029,13.3061,4.60152,2470.857,2023-9-20T12:43:05Z
2023-09-20T10:43:46Z,42.805,6.029,13.3058,4.60186,2470.871,2023-9-20T12:46:08Z
2023-09-20T10:46:49Z,42.805,6.029,13.3061,4.60154,2470.833,2023-9-20T12:49:11Z
2023-09-20T10:49:52Z,42.805,6.029,13.3073,4.60161,2470.847,2023-9-20T12:52:15Z
2023-09-20T10:52:55Z,42.805,6.029,13.3086,4.60116,2470.847,2023-9-20T12:55:18Z
2023-09-20T10:55:58Z,42.805,6.029,13.3056,4.60151,2470.88,2023-9-20T12:58:21Z
2023-09-20T10:59:01Z,42.805,6.029,13.3059,4.60102,2470.847,2023-9-20T13:01:24Z
2023-09-20T11:02:05Z,42.805,6.029,13.3048,4.60142,2470.871,2023-9-20T13:04:27Z
2023-09-20T11:05:08Z,42.805,6.029,13.3045,4.60172,2470.871,2023-9-20T13:07:30Z
2023-09-20T11:08:11Z,42.805,6.029,13.3056,4.60174,2470.847,2023-9-20T13:10:33Z
2023-09-20T11:11:14Z,42.805,6.029,13.3043,4.60181,2470.88,2023-9-20T13:13:36Z
2023-09-20T11:14:17Z,42.805,6.029,13.3033,4.60157,2470.857,2023-9-20T13:16:39Z
2023-09-20T11:17:20Z,42.805,6.029,13.3041,4.60162,2470.833,2023-9-20T13:19:42Z
2023-09-20T11:20:23Z,42.805,6.029,13.3039,4.60132,2470.847,2023-9-20T13:22:45Z
2023-09-20T11:23:26Z,42.805,6.029,13.3049,4.60137,2470.857,2023-9-20T13:25:49Z
2023-09-20T11:26:29Z,42.805,6.029,13.3036,4.60142,2470.81,2023-9-20T13:28:52Z
2023-09-20T11:29:32Z,42.805,6.029,13.3039,4.60137,2470.81,2023-9-20T13:31:55Z
2023-09-20T11:32:35Z,42.805,6.029,13.3037,4.60142,2470.833,2023-9-20T13:34:58Z
2023-09-20T11:35:39Z,42.805,6.029,13.3039,4.60131,2470.833,2023-9-20T13:38:01Z
2023-09-20T11:38:42Z,42.805,6.029,13.3049,4.60131,2470.847,2023-9-20T13:41:04Z
2023-09-20T11:41:45Z,42.805,6.029,13.3043,4.60158,2470.81,2023-9-20T13:44:07Z
2023-09-20T11:44:48Z,42.805,6.029,13.3041,4.60168,2470.871,2023-9-20T13:47:10Z
2023-09-20T11:47:51Z,42.805,6.029,13.3041,4.60163,2470.824,2023-9-20T13:50:13Z
2023-09-20T11:50:54Z,42.805,6.029,13.3058,4.60132,2470.824,2023-9-20T13:53:16Z
2023-09-20T11:53:57Z,42.805,6.029,13.3032,4.60195,2470.824,2023-9-20T13:56:19Z
2023-09-20T11:57:00Z,42.805,6.029,13.3037,4.60147,2470.824,2023-9-20T13:59:23Z
2023-09-20T12:00:03Z,42.805,6.029,13.3036,4.60140,2470.81,2023-9-20T14:02:26Z
2023-09-20T12:03:06Z,42.805,6.029,13.3046,4.60143,2470.824,2023-9-20T14:05:29Z
2023-09-20T12:06:09Z,42.805,6.029,13.3050,4.60139,2470.787,2023-9-20T14:08:32Z
2023-09-20T12:09:12Z,42.805,6.029,13.3037,4.60140,2470.833,2023-9-20T14:11:35Z
2023-09-20T12:12:16Z,42.805,6.029,13.3058,4.60166,2470.833,2023-9-20T14:14:38Z
2023-09-20T12:15:19Z,42.805,6.029,13.3053,4.60162,2470.787,2023-9-20T14:17:41Z
2023-09-20T12:18:22Z,42.805,6.029,13.3050,4.60137,2470.81,2023-9-20T14:20:44Z
2023-09-20T12:21:25Z,42.805,6.029,13.3041,4.60160,2470.824,2023-9-20T14:23:47Z
2023-09-20T12:24:28Z,42.805,6.029,13.3043,4.60181,2470.787,2023-9-20T14:26:50Z
2023-09-20T12:27:31Z,42.805,6.029,13.3061,4.60172,2470.833,2023-9-20T14:29:53Z
2023-09-20T12:30:35Z,42.805,6.029,13.3047,4.60178,2470.81,2023-9-20T14:32:58Z
2023-09-20T12:33:38Z,42.805,6.029,13.3039,4.60155,2470.847,2023-9-20T14:36:01Z
2023-09-20T12:36:41Z,42.805,6.029,13.3057,4.60137,2470.81,2023-9-20T14:39:04Z
2023-09-20T12:39:44Z,42.805,6.029,13.3061,4.60158,2470.8,2023-9-20T14:42:07Z
2023-09-20T12:42:48Z,42.805,6.029,13.3050,4.60173,2470.824,2023-9-20T14:45:10Z
2023-09-20T12:45:51Z,42.805,6.029,13.3041,4.60147,2470.8,2023-9-20T14:48:13Z
2023-09-20T12:48:54Z,42.805,6.029,13.3043,4.60183,2470.773,2023-9-20T14:51:16Z
2023-09-20T12:51:57Z,42.805,6.029,13.3056,4.60143,2470.777,2023-9-20T14:54:19Z
2023-09-20T12:55:00Z,42.805,6.029,13.3041,4.60173,2470.763,2023-9-20T14:57:22Z
2023-09-20T12:58:03Z,42.805,6.029,13.3048,4.60163,2470.763,2023-9-20T15:00:25Z
2023-09-20T13:01:06Z,42.805,6.029,13.3040,4.60137,2470.763,2023-9-20T15:03:28Z
2023-09-20T13:04:09Z,42.805,6.029,13.3052,4.60150,2470.763,2023-9-20T15:06:32Z
2023-09-20T13:07:12Z,42.805,6.029,13.3061,4.60172,2470.763,2023-9-20T15:09:35Z
2023-09-20T13:10:15Z,42.805,6.029,13.3049,4.60193,2470.763,2023-9-20T15:12:38Z
2023-09-20T13:13:18Z,42.805,6.029,13.3048,4.60167,2470.763,2023-9-20T15:15:41Z
2023-09-20T13:16:22Z,42.805,6.029,13.3041,4.60167,2470.787,2023-9-20T15:18:44Z
2023-09-20T13:19:25Z,42.805,6.029,13.3051,4.60158,2470.787,2023-9-20T15:21:47Z
2023-09-20T13:22:28Z,42.805,6.029,13.3049,4.60167,2470.777,2023-9-20T15:24:50Z
2023-09-20T13:25:31Z,42.805,6.029,13.3061,4.60160,2470.81,2023-9-20T15:27:53Z
2023-09-20T13:28:34Z,42.805,6.029,13.3044,4.60176,2470.763,2023-9-20T15:30:56Z
2023-09-20T13:31:37Z,42.805,6.029,13.3038,4.60153,2470.763,2023-9-20T15:33:59Z
2023-09-20T13:34:40Z,42.805,6.029,13.3061,4.60164,2470.763,2023-9-20T15:37:02Z
2023-09-20T13:37:43Z,42.805,6.029,13.3058,4.60132,2470.754,2023-9-20T15:40:06Z
2023-09-20T13:40:46Z,42.805,6.029,13.3050,4.60174,2470.787,2023-9-20T15:43:09Z
2023-09-20T13:43:49Z,42.805,6.029,13.3058,4.60155,2470.763,2023-9-20T15:46:12Z
2023-09-20T13:46:52Z,42.805,6.029,13.3044,4.60160,2470.763,2023-9-20T15:49:15Z
2023-09-20T13:49:55Z,42.805,6.029,13.3055,4.60176,2470.787,2023-9-20T15:52:18Z
2023-09-20T13:52:59Z,42.805,6.029,13.3054,4.60182,2470.763,2023-9-20T15:55:21Z
2023-09-20T13:56:02Z,42.805,6.029,13.3051,4.60162,2470.763,2023-9-20T15:58:24Z
2023-09-20T13:59:05Z,42.805,6.029,13.3046,4.60162,2470.754,2023-9-20T16:01:27Z
2023-09-20T14:02:08Z,42.805,6.029,13.3049,4.60173,2470.754,2023-9-20T16:04:30Z
2023-09-20T14:05:11Z,42.805,6.029,13.3036,4.60155,2470.717,2023-9-20T16:07:33Z
2023-09-20T14:08:14Z,42.805,6.029,13.3036,4.60157,2470.754,2023-9-20T16:10:36Z
2023-09-20T14:11:17Z,42.805,6.029,13.3056,4.60144,2470.763,2023-9-20T16:13:39Z
2023-09-20T14:14:20Z,42.805,6.029,13.3056,4.60155,2470.74,2023-9-20T16:16:43Z
2023-09-20T14:17:23Z,42.805,6.029,13.3065,4.60170,2470.74,2023-9-20T16:19:46Z
2023-09-20T14:20:26Z,42.805,6.029,13.3042,4.60168,2470.777,2023-9-20T16:22:49Z
2023-09-20T14:23:29Z,42.805,6.029,13.3040,4.60155,2470.754,2023-9-20T16:25:52Z
2023-09-20T14:26:33Z,42.805,6.029,13.3051,4.60158,2470.777,2023-9-20T16:28:55Z
2023-09-20T14:29:36Z,42.805,6.029,13.3054,4.60147,2470.74,2023-9-20T16:31:58Z
2023-09-20T14:32:39Z,42.805,6.029,13.3041,4.60169,2470.74,2023-9-20T16:35:01Z
2023-09-20T14:35:42Z,42.805,6.029,13.3055,4.60165,2470.717,2023-9-20T16:38:04Z
2023-09-20T14:38:45Z,42.805,6.029,13.3040,4.60148,2470.73,2023-9-20T16:41:07Z
2023-09-20T14:41:48Z,42.805,6.029,13.3050,4.60173,2470.74,2023-9-20T16:44:10Z
2023-09-20T14:44:51Z,42.805,6.029,13.3054,4.60173,2470.74,2023-9-20T16:47:13Z
2023-09-20T14:47:54Z,42.805,6.029,13.3054,4.60163,2470.74,2023-9-20T16:50:16Z
2023-09-20T14:50:57Z,42.805,6.029,13.3039,4.60170,2470.73,2023-9-20T16:53:20Z
2023-09-20T14:54:00Z,42.805,6.029,13.3046,4.60135,2470.74,2023-9-20T16:56:23Z
2023-09-20T14:57:03Z,42.805,6.029,13.3042,4.60158,2470.763,2023-9-20T16:59:26Z
2023-09-20T15:00:06Z,42.805,6.029,13.3051,4.60170,2470.717,2023-9-20T17:02:29Z
2023-09-20T15:03:09Z,42.805,6.029,13.3049,4.60191,2470.74,2023-9-20T17:05:32Z
2023-09-20T15:06:13Z,42.805,6.029,13.3044,4.60152,2470.74,2023-9-20T17:08:35Z
2023-09-20T15:09:16Z,42.805,6.029,13.3048,4.60154,2470.717,2023-9-20T17:11:38Z
2023-09-20T15:12:19Z,42.805,6.029,13.3036,4.60156,2470.717,2023-9-20T17:14:41Z
2023-09-20T15:15:22Z,42.805,6.029,13.3053,4.60157,2470.717,2023-9-20T17:17:44Z